Location: Bow
(51.5261°N, 0.0167°W)
Time: 22:59:48
(UTC+00:00)

Cosmos 1300 Rocket - Pass Details

Date: 18 September 2020
Orbit: 601 x 627 km, 82.5° (Epoch: 30 October)

Event Time Altitude Azimuth Distance (km) Brightness Sun altitude
Rises 19:54:31 0° 194° (SSW) 2,880 6.9 -17.0°
Reaches altitude 10° 19:56:44 10° 196° (SSW) 1,983 6.1 -17.3°
Maximum altitude 20:01:07 73° 282° (WNW) 657 3.8 -17.9°
Drops below altitude 10° 20:05:35 10° 7° (N) 2,012 6.4 -18.6°
Sets 20:07:50 0° 10° (N) 2,926 7.3 -18.9°
